EWG83FA EDDM-EDDL

Flight info

Callsign EWG83FA
Flight time 0h 50m
Altitude 32000
Route GIVMI6E GIVMI Y101 INBED DCT REKDI DCT LOHRE Z850 ARPEG/N0379F240 Z850 ADEMI T854 DOMUX DOMUX1A
Aircraft A320/M-SDE3FGHIRWY/LB1

Departure

Time 2026-04-30 08:49
Airport Munich Airport (EDDM)

Arrival

Time 2026-04-30 09:39
Airport Düsseldorf Airport (EDDL)
Time Latitude Longitude Altitude Speed Heading
2026-04-30 08:10 48.35507 11.80007 1486 ft 0 kts 263°
2026-04-30 08:25 48.35507 11.80008 1485 ft 0 kts 263°
2026-04-30 08:37 48.35508 11.80017 1485 ft 2 kts 263°
2026-04-30 08:38 48.35510 11.80042 1475 ft 3 kts 268°
2026-04-30 08:38 48.35508 11.80070 1480 ft 3 kts 301°
2026-04-30 08:38 48.35495 11.80090 1473 ft 3 kts 339°
2026-04-30 08:38 48.35478 11.80097 1485 ft 2 kts 353°
2026-04-30 08:39 48.35472 11.80098 1475 ft 0 kts 353°
2026-04-30 08:41 48.35479 11.80097 1485 ft 5 kts 354°
2026-04-30 08:41 48.35550 11.80087 1485 ft 15 kts 353°
2026-04-30 08:41 48.35651 11.80070 1485 ft 12 kts 356°
2026-04-30 08:42 48.35727 11.80075 1481 ft 10 kts 354°
2026-04-30 08:42 48.35791 11.80054 1478 ft 9 kts 326°
2026-04-30 08:42 48.35808 11.79977 1485 ft 10 kts 265°
2026-04-30 08:42 48.35797 11.79821 1478 ft 20 kts 263°
2026-04-30 08:43 48.35781 11.79620 1485 ft 19 kts 264°
2026-04-30 08:43 48.35768 11.79445 1483 ft 11 kts 263°
2026-04-30 08:43 48.35812 11.79392 1483 ft 8 kts 355°
2026-04-30 08:43 48.35891 11.79374 1475 ft 15 kts 342°
2026-04-30 08:44 48.35983 11.79335 1478 ft 13 kts 353°
2026-04-30 08:44 48.36066 11.79318 1485 ft 11 kts 350°
2026-04-30 08:44 48.36086 11.79230 1483 ft 9 kts 264°
2026-04-30 08:44 48.36072 11.79046 1485 ft 26 kts 263°
2026-04-30 08:45 48.36051 11.78771 1485 ft 26 kts 263°
2026-04-30 08:45 48.36031 11.78512 1482 ft 24 kts 263°
2026-04-30 08:45 48.36010 11.78231 1485 ft 29 kts 263°
2026-04-30 08:45 48.35987 11.77928 1477 ft 28 kts 264°
2026-04-30 08:46 48.35965 11.77646 1485 ft 26 kts 263°
2026-04-30 08:46 48.35944 11.77385 1481 ft 24 kts 263°
2026-04-30 08:46 48.35926 11.77147 1481 ft 19 kts 263°
2026-04-30 08:46 48.35974 11.77002 1482 ft 14 kts 315°
2026-04-30 08:47 48.36064 11.76968 1485 ft 13 kts 353°
2026-04-30 08:47 48.36148 11.76953 1473 ft 13 kts 353°
2026-04-30 08:47 48.36235 11.76936 1484 ft 12 kts 353°
2026-04-30 08:47 48.36290 11.76955 1476 ft 7 kts 63°
2026-04-30 08:48 48.36302 11.77103 1485 ft 37 kts 83°
2026-04-30 08:48 48.36359 11.77851 1485 ft 104 kts 83°
2026-04-30 08:48 48.36463 11.79209 1482 ft 154 kts 84°
2026-04-30 08:48 48.36585 11.80878 2069 ft 161 kts 84°
2026-04-30 08:49 48.36713 11.82544 2960 ft 159 kts 85°
2026-04-30 08:49 48.36845 11.84226 3671 ft 169 kts 84°
2026-04-30 08:49 48.37308 11.85970 4113 ft 199 kts 48°
2026-04-30 08:49 48.38644 11.86971 4606 ft 235 kts 17°
2026-04-30 08:50 48.40296 11.87207 5133 ft 262 kts
2026-04-30 08:50 48.42130 11.86275 6037 ft 282 kts 325°
2026-04-30 08:50 48.43506 11.84116 6995 ft 290 kts 312°
2026-04-30 08:50 48.44789 11.81737 7974 ft 292 kts 311°
2026-04-30 08:51 48.46047 11.79364 8947 ft 293 kts 311°
2026-04-30 08:51 48.47335 11.76970 9972 ft 293 kts 313°
2026-04-30 08:51 48.48640 11.74597 10902 ft 294 kts 313°
2026-04-30 08:51 48.49969 11.72222 11760 ft 297 kts 313°
2026-04-30 08:52 48.51317 11.69834 12580 ft 300 kts 314°
2026-04-30 08:52 48.52686 11.67419 13390 ft 304 kts 314°
2026-04-30 08:52 48.54072 11.64971 14193 ft 308 kts 315°
2026-04-30 08:52 48.55470 11.62504 14915 ft 311 kts 315°
2026-04-30 08:53 48.56866 11.60035 15625 ft 314 kts 315°
2026-04-30 08:53 48.58337 11.57434 16025 ft 331 kts 315°
2026-04-30 08:53 48.59887 11.54702 16175 ft 352 kts 314°
2026-04-30 08:53 48.61502 11.51848 16635 ft 361 kts 314°
2026-04-30 08:54 48.63145 11.48932 17272 ft 366 kts 314°
2026-04-30 08:54 48.64802 11.45976 17933 ft 369 kts 315°
2026-04-30 08:54 48.66448 11.43035 18599 ft 373 kts 315°
2026-04-30 08:54 48.68129 11.40032 19180 ft 376 kts 315°
2026-04-30 08:55 48.69892 11.37084 19735 ft 375 kts 322°
2026-04-30 08:55 48.71928 11.34645 20291 ft 373 kts 331°
2026-04-30 08:55 48.74097 11.32464 20849 ft 375 kts 332°
2026-04-30 08:55 48.76271 11.30274 21398 ft 378 kts 332°
2026-04-30 08:56 48.77740 11.28787 21758 ft 380 kts 332°
2026-04-30 08:56 48.79942 11.26551 22296 ft 383 kts 332°
2026-04-30 08:56 48.82164 11.24290 22836 ft 386 kts 332°
2026-04-30 08:56 48.84459 11.22174 23353 ft 383 kts 339°
2026-04-30 08:57 48.86925 11.20679 23866 ft 380 kts 347°
2026-04-30 08:57 48.89452 11.19410 24316 ft 383 kts 347°
2026-04-30 08:57 48.92006 11.18125 24741 ft 385 kts 347°
2026-04-30 08:57 48.94560 11.16834 25194 ft 388 kts 347°
2026-04-30 08:58 48.97132 11.15529 25601 ft 390 kts 347°
2026-04-30 08:58 48.99716 11.14215 26007 ft 392 kts 347°
2026-04-30 08:58 49.02320 11.12887 26431 ft 395 kts 347°
2026-04-30 08:58 49.04905 11.11566 26842 ft 397 kts 347°
2026-04-30 08:59 49.07534 11.10223 27235 ft 399 kts 347°
2026-04-30 08:59 49.10183 11.08870 27635 ft 401 kts 347°
2026-04-30 08:59 49.12871 11.07497 28043 ft 403 kts 347°
2026-04-30 08:59 49.15546 11.06132 28430 ft 406 kts 347°
2026-04-30 09:00 49.18235 11.04757 28806 ft 408 kts 347°
2026-04-30 09:00 49.20903 11.03388 29175 ft 410 kts 347°
2026-04-30 09:00 49.23623 11.01990 29549 ft 413 kts 347°
2026-04-30 09:00 49.26362 11.00582 29930 ft 415 kts 347°
2026-04-30 09:01 49.29115 10.99164 30283 ft 417 kts 347°
2026-04-30 09:01 49.31875 10.97741 30604 ft 420 kts 347°
2026-04-30 09:01 49.34858 10.96162 30895 ft 424 kts 343°
2026-04-30 09:01 49.37364 10.94267 31150 ft 433 kts 334°
2026-04-30 09:02 49.42028 10.88004 31676 ft 454 kts 315°
2026-04-30 09:02 49.44028 10.84217 31936 ft 456 kts 315°
2026-04-30 09:02 49.46023 10.80439 32292 ft 455 kts 315°
2026-04-30 09:03 49.48017 10.76657 32415 ft 454 kts 315°
2026-04-30 09:03 49.49948 10.72973 32437 ft 440 kts 315°
2026-04-30 09:03 49.53772 10.65672 32446 ft 432 kts 315°
2026-04-30 09:04 49.57554 10.58465 32440 ft 431 kts 315°
2026-04-30 09:04 49.61306 10.51297 32438 ft 431 kts 315°
2026-04-30 09:05 49.65064 10.44072 32440 ft 431 kts 314°
2026-04-30 09:05 49.68639 10.36568 32434 ft 435 kts 310°
2026-04-30 09:06 49.71995 10.28762 32431 ft 435 kts 309°
2026-04-30 09:06 49.75330 10.20943 32428 ft 435 kts 310°
2026-04-30 09:07 49.78717 10.13177 32424 ft 435 kts 310°
2026-04-30 09:07 49.82126 10.05447 32426 ft 434 kts 310°
2026-04-30 09:08 49.85561 9.97626 32419 ft 435 kts 310°
2026-04-30 09:08 49.88950 9.89846 32411 ft 435 kts 310°
2026-04-30 09:09 49.92292 9.82126 32409 ft 434 kts 309°
2026-04-30 09:09 49.95669 9.74312 32410 ft 435 kts 309°
2026-04-30 09:10 49.99043 9.66496 32409 ft 434 kts 309°
2026-04-30 09:10 50.02411 9.58670 32410 ft 434 kts 309°
2026-04-30 09:11 50.05806 9.50856 32423 ft 432 kts 313°
2026-04-30 09:11 50.10007 9.44464 32409 ft 421 kts 327°
2026-04-30 09:12 50.14591 9.38690 32423 ft 422 kts 327°
2026-04-30 09:12 50.19154 9.32908 32415 ft 421 kts 327°
2026-04-30 09:13 50.23650 9.27204 32422 ft 421 kts 327°
2026-04-30 09:13 50.28234 9.21369 32413 ft 421 kts 326°
2026-04-30 09:14 50.32056 9.16482 32417 ft 421 kts 326°
2026-04-30 09:14 50.36625 9.11017 32417 ft 421 kts 326°
2026-04-30 09:15 50.41107 9.05106 32421 ft 422 kts 325°
2026-04-30 09:15 50.45560 8.99183 32425 ft 422 kts 326°
2026-04-30 09:16 50.50092 8.93300 32429 ft 421 kts 326°
2026-04-30 09:16 50.54652 8.87512 32434 ft 420 kts 328°
2026-04-30 09:17 50.59318 8.81941 32435 ft 420 kts 329°
2026-04-30 09:17 50.63977 8.76447 32436 ft 420 kts 328°
2026-04-30 09:18 50.68652 8.70853 32434 ft 421 kts 328°
2026-04-30 09:18 50.73312 8.65219 32454 ft 427 kts 328°
2026-04-30 09:19 50.75705 8.62328 32021 ft 434 kts 328°
2026-04-30 09:19 50.78109 8.59420 31257 ft 434 kts 327°
2026-04-30 09:19 50.80475 8.56538 30261 ft 428 kts 327°
2026-04-30 09:19 50.82810 8.53685 29470 ft 425 kts 327°
2026-04-30 09:20 50.85163 8.50802 28992 ft 418 kts 327°
2026-04-30 09:20 50.87429 8.48029 28495 ft 413 kts 327°
2026-04-30 09:20 50.89692 8.45272 28017 ft 407 kts 327°
2026-04-30 09:20 50.91923 8.42552 27548 ft 402 kts 327°
2026-04-30 09:21 50.94138 8.39846 27096 ft 396 kts 327°
2026-04-30 09:21 50.96293 8.37211 26645 ft 391 kts 327°
2026-04-30 09:21 50.98415 8.34612 26215 ft 387 kts 327°
2026-04-30 09:21 51.00563 8.31972 25761 ft 383 kts 326°
2026-04-30 09:22 51.02474 8.29103 25320 ft 385 kts 315°
2026-04-30 09:22 51.04200 8.25847 24840 ft 384 kts 314°
2026-04-30 09:22 51.05914 8.22601 24389 ft 382 kts 314°
2026-04-30 09:22 51.07622 8.19373 23875 ft 381 kts 314°
2026-04-30 09:23 51.09325 8.16158 23367 ft 378 kts 314°
2026-04-30 09:23 51.11053 8.12889 22878 ft 375 kts 314°
2026-04-30 09:23 51.12512 8.09469 22405 ft 379 kts 298°
2026-04-30 09:23 51.13268 8.05480 21948 ft 383 kts 278°
2026-04-30 09:24 51.13240 8.01234 21667 ft 383 kts 267°
2026-04-30 09:24 51.13027 7.96973 21418 ft 383 kts 267°
2026-04-30 09:24 51.12811 7.92786 21162 ft 382 kts 266°
2026-04-30 09:24 51.12591 7.88599 20913 ft 381 kts 266°
2026-04-30 09:25 51.12401 7.84407 20660 ft 379 kts 268°
2026-04-30 09:25 51.12271 7.80192 20411 ft 378 kts 269°
2026-04-30 09:25 51.12174 7.75992 19599 ft 382 kts 269°
2026-04-30 09:25 51.12088 7.71752 18633 ft 385 kts 269°
2026-04-30 09:26 51.11997 7.67484 17955 ft 383 kts 269°
2026-04-30 09:26 51.11894 7.63264 17484 ft 381 kts 268°
2026-04-30 09:26 51.11784 7.59101 17021 ft 379 kts 268°
2026-04-30 09:26 51.11667 7.54911 16557 ft 378 kts 268°
2026-04-30 09:27 51.11546 7.50742 16081 ft 376 kts 268°
2026-04-30 09:27 51.11425 7.46580 15632 ft 375 kts 268°
2026-04-30 09:27 51.11308 7.42434 15197 ft 374 kts 268°
2026-04-30 09:27 51.11192 7.38308 14713 ft 370 kts 268°
2026-04-30 09:28 51.11073 7.34282 14253 ft 357 kts 268°
2026-04-30 09:28 51.10956 7.30400 13777 ft 346 kts 267°
2026-04-30 09:28 51.10841 7.26624 13356 ft 345 kts 267°
2026-04-30 09:28 51.10725 7.22812 12912 ft 345 kts 267°
2026-04-30 09:29 51.10615 7.19266 12510 ft 345 kts 267°
2026-04-30 09:29 51.10496 7.15507 12064 ft 345 kts 267°
2026-04-30 09:29 51.10379 7.11800 11579 ft 347 kts 267°
2026-04-30 09:29 51.10256 7.07964 11105 ft 348 kts 266°
2026-04-30 09:30 51.10134 7.04114 10642 ft 348 kts 267°
2026-04-30 09:30 51.10012 7.00294 10401 ft 340 kts 266°
2026-04-30 09:30 51.09890 6.96585 10281 ft 329 kts 266°
2026-04-30 09:30 51.09768 6.92980 9821 ft 318 kts 266°
2026-04-30 09:31 51.09649 6.89545 9259 ft 313 kts 266°
2026-04-30 09:31 51.09537 6.86134 8852 ft 310 kts 266°
2026-04-30 09:31 51.09423 6.82721 8437 ft 308 kts 266°
2026-04-30 09:31 51.09306 6.79355 8036 ft 298 kts 266°
2026-04-30 09:32 51.09196 6.76120 7656 ft 288 kts 266°
2026-04-30 09:32 51.09088 6.72994 7285 ft 278 kts 265°
2026-04-30 09:32 51.08979 6.69917 6921 ft 277 kts 265°
2026-04-30 09:32 51.08867 6.66886 6702 ft 269 kts 265°
2026-04-30 09:33 51.08763 6.63969 6278 ft 264 kts 265°
2026-04-30 09:33 51.08682 6.61059 5662 ft 270 kts 271°
2026-04-30 09:33 51.09203 6.58166 5090 ft 270 kts 304°
2026-04-30 09:33 51.10464 6.56140 4735 ft 255 kts 335°
2026-04-30 09:34 51.12071 6.55225 4438 ft 239 kts 355°
2026-04-30 09:34 51.13676 6.54680 4156 ft 233 kts 354°
2026-04-30 09:34 51.15248 6.54148 3872 ft 228 kts 355°
2026-04-30 09:34 51.16796 6.54030 3613 ft 213 kts 17°
2026-04-30 09:35 51.18129 6.54652 3413 ft 191 kts 35°
2026-04-30 09:35 51.19189 6.55818 3188 ft 181 kts 53°
2026-04-30 09:35 51.19966 6.57325 2952 ft 175 kts 60°
2026-04-30 09:35 51.20681 6.58812 2748 ft 171 kts 58°
2026-04-30 09:36 51.21404 6.60319 2489 ft 171 kts 58°
2026-04-30 09:36 51.22110 6.61787 2265 ft 161 kts 56°
2026-04-30 09:36 51.22767 6.63155 2057 ft 149 kts 57°
2026-04-30 09:36 51.23378 6.64428 1871 ft 142 kts 59°
2026-04-30 09:37 51.23963 6.65650 1672 ft 136 kts 58°
2026-04-30 09:37 51.24530 6.66836 1486 ft 134 kts 57°
2026-04-30 09:37 51.25098 6.68021 1302 ft 134 kts 57°
2026-04-30 09:37 51.25663 6.69205 1101 ft 134 kts 58°
2026-04-30 09:38 51.26244 6.70418 938 ft 135 kts 56°
2026-04-30 09:38 51.26801 6.71577 693 ft 133 kts 56°
2026-04-30 09:38 51.27370 6.72759 555 ft 135 kts 60°
2026-04-30 09:38 51.27936 6.73947 352 ft 134 kts 57°
2026-04-30 09:39 51.28499 6.75121 175 ft 133 kts 60°
2026-04-30 09:39 51.29028 6.76246 132 ft 114 kts 60°
2026-04-30 09:39 51.29397 6.77030 131 ft 63 kts 52°
2026-04-30 09:39 51.29573 6.77417 128 ft 30 kts 65°
2026-04-30 09:40 51.29590 6.77641 128 ft 6 kts 98°
2026-04-30 09:40 51.29589 6.77663 129 ft 3 kts 97°
2026-04-30 09:40 51.29580 6.77723 129 ft 12 kts 107°
2026-04-30 09:40 51.29508 6.77890 135 ft 20 kts 140°
2026-04-30 09:41 51.29475 6.77927 136 ft 0 kts 143°
2026-04-30 09:41 51.29466 6.77938 136 ft 6 kts 143°
2026-04-30 09:41 51.29399 6.78019 139 ft 16 kts 142°
2026-04-30 09:41 51.29311 6.78126 140 ft 16 kts 142°
2026-04-30 09:42 51.29215 6.78218 137 ft 15 kts 176°
2026-04-30 09:42 51.29128 6.78115 133 ft 17 kts 232°
2026-04-30 09:42 51.29052 6.77958 128 ft 18 kts 233°
2026-04-30 09:42 51.28979 6.77804 127 ft 19 kts 232°
2026-04-30 09:43 51.28880 6.77594 125 ft 27 kts 233°
2026-04-30 09:43 51.28763 6.77349 127 ft 29 kts 233°
2026-04-30 09:43 51.28639 6.77089 128 ft 30 kts 233°
2026-04-30 09:43 51.28513 6.76827 123 ft 30 kts 232°
2026-04-30 09:44 51.28401 6.76590 123 ft 27 kts 232°
2026-04-30 09:44 51.28284 6.76346 125 ft 28 kts 232°
2026-04-30 09:44 51.28191 6.76148 127 ft 14 kts 232°
2026-04-30 09:44 51.28132 6.76032 126 ft 10 kts 217°
2026-04-30 09:45 51.28058 6.76047 127 ft 13 kts 176°
2026-04-30 09:45 51.27963 6.76048 128 ft 14 kts 179°
2026-04-30 09:45 51.27869 6.76051 124 ft 11 kts 166°
2026-04-30 09:45 51.27841 6.76164 128 ft 12 kts 92°
2026-04-30 09:46 51.27840 6.76256 129 ft 12 kts 90°
2026-04-30 09:46 51.27843 6.76342 124 ft 5 kts 72°
2026-04-30 09:46 51.27862 6.76379 127 ft 2 kts 45°
2026-04-30 09:46 51.27868 6.76388 127 ft 0 kts 45°
2026-04-30 09:49 51.27868 6.76387 127 ft 0 kts 45°